Pensacola NAS, FL

9:04 PM CDT on July 25, 2017 (GMT -0500)
Pensacola Naval Air Station

Weather History for KNPA - November, 2013

Change the Weather History Date:

Friday, November 22, 2013

  Actual Average Record
Temperature  
Mean Temperature 67 °F -  
Max Temperature 71 °F 67 °F 80 °F (1999)
Min Temperature 63 °F 49 °F 27 °F (2000)
Cooling Degree Days 2    
Growing Degree Days 17 (Base 50)    
Moisture  
Dew Point 63 °F    
Average Humidity 90    
Maximum Humidity 100    
Minimum Humidity 81    
Precipitation  
Precipitation 0.00 in - - ()
Sea Level Pressure  
Sea Level Pressure 30.20 in    
Wind  
Wind Speed 7 mph (ENE)    
Max Wind Speed 14 mph    
Max Gust Speed -    
Visibility 10 miles    
Events      
Averages and records for this station are not official NWS values.
T = Trace of Precipitation, MM = Missing Value Source: NWS Daily Summary

Daily Weather History Graph

Daily Weather History Graph

Search for Another Location

Airport or City:

Trip Planner

Search our weather history database for the weather conditions in past years. The results will help you decide how hot, cold, wet, or windy it might be!

Date:

Astronomy

Nov. 22, 2013 Rise Set
Actual Time 6:21 AM CST 4:49 PM CST
Civil Twilight 5:55 AM CST 5:15 PM CST
Nautical Twilight 5:26 AM CST 5:44 PM CST
Astronomical Twilight 4:57 AM CST 6:13 PM CST
Moon 9:15 PM CST (11/22) 10:08 AM CST (11/22)
Length of Visible Light 11h 20m
Length of Day
10h 28m
Waning Gibbous, 78% of the Moon is Illuminated
Nov 22
Waning Gibbous
Nov 25
Last Quarter
Dec 2
New
Dec 9
First Quarter
Dec 17
Full

Hourly Weather History & Observations

Time (CST) Temp. Dew Point Humidity Pressure Visibility Wind Dir Wind Speed Gust Speed Precip Events Conditions
12:56 AM 63.0 °F 60.1 °F 90% 30.20 in 10.0 mi ENE 6.9 mph - N/A   Partly Cloudy
1:56 AM 64.0 °F 62.1 °F 93% 30.21 in 10.0 mi NE 3.5 mph - N/A   Mostly Cloudy
2:56 AM 64.9 °F 62.1 °F 90% 30.19 in 10.0 mi ENE 8.1 mph - N/A   Overcast
3:56 AM 64.9 °F 62.1 °F 90% 30.19 in 10.0 mi ENE 8.1 mph - N/A   Overcast
4:56 AM 64.9 °F 62.1 °F 90% 30.19 in 10.0 mi ENE 11.5 mph - N/A   Mostly Cloudy
5:37 AM 64.0 °F 62.1 °F 93% 30.19 in 10.0 mi NE 6.9 mph - N/A   Scattered Clouds
5:46 AM 64.0 °F 62.1 °F 93% 30.19 in 10.0 mi ENE 4.6 mph - N/A   Mostly Cloudy
5:56 AM 64.0 °F 62.1 °F 93% 30.20 in 10.0 mi NE 4.6 mph - N/A   Mostly Cloudy
6:30 AM 64.9 °F 62.1 °F 90% 30.21 in 10.0 mi NE 5.8 mph - N/A   Overcast
6:56 AM 64.9 °F 62.1 °F 90% 30.23 in 10.0 mi NE 5.8 mph - N/A   Overcast
7:30 AM 64.9 °F 62.1 °F 90% 30.22 in 10.0 mi ENE 8.1 mph - N/A   Mostly Cloudy
7:56 AM 64.9 °F 62.1 °F 90% 30.23 in 10.0 mi ENE 10.4 mph - N/A   Mostly Cloudy
8:56 AM 66.9 °F 62.1 °F 84% 30.24 in 10.0 mi East 11.5 mph - N/A   Mostly Cloudy
9:12 AM 66.9 °F 63.0 °F 87% 30.24 in 10.0 mi East 8.1 mph - N/A   Overcast
9:34 AM 66.9 °F 63.0 °F 87% 30.24 in 10.0 mi East 10.4 mph - N/A   Overcast
9:56 AM 68.0 °F 64.0 °F 87% 30.24 in 10.0 mi East 11.5 mph - N/A   Overcast
10:41 AM 69.1 °F 64.0 °F 84% 30.22 in 10.0 mi ESE 13.8 mph - N/A   Mostly Cloudy
10:56 AM 70.0 °F 64.0 °F 81% 30.22 in 10.0 mi East 13.8 mph - N/A   Mostly Cloudy
11:06 AM 70.0 °F 64.0 °F 81% 30.22 in 10.0 mi East 12.7 mph - N/A   Mostly Cloudy
11:56 AM 71.1 °F 64.9 °F 81% 30.21 in 10.0 mi East 13.8 mph - N/A   Mostly Cloudy
12:01 PM 71.1 °F 64.9 °F 81% 30.20 in 10.0 mi East 11.5 mph - N/A   Mostly Cloudy
12:39 PM 68.0 °F 64.0 °F 87% 30.20 in 10.0 mi ENE 5.8 mph - N/A   Overcast
12:56 PM 69.1 °F 64.9 °F 87% 30.20 in 10.0 mi ENE 6.9 mph - N/A   Overcast
1:56 PM 68.0 °F 64.0 °F 87% 30.19 in 10.0 mi ENE 5.8 mph - N/A   Overcast
2:56 PM 68.0 °F 64.9 °F 90% 30.19 in 10.0 mi East 4.6 mph - N/A   Overcast
3:56 PM 68.0 °F 64.9 °F 90% 30.18 in 10.0 mi SE 6.9 mph - N/A   Overcast
4:56 PM 66.9 °F 64.9 °F 93% 30.18 in 10.0 mi SE 3.5 mph - N/A   Overcast
5:56 PM 66.9 °F 64.9 °F 93% 30.15 in 10.0 mi SE 9.2 mph - N/A   Mostly Cloudy
6:56 PM 66.0 °F 64.9 °F 96% 30.14 in 10.0 mi SE 6.9 mph - N/A   Mostly Cloudy
7:56 PM 64.9 °F 64.0 °F 97% 30.17 in 10.0 mi NNW 3.5 mph - N/A   Mostly Cloudy
8:56 PM 66.0 °F 64.9 °F 96% 30.18 in 10.0 mi North 5.8 mph - N/A   Overcast
9:56 PM 64.9 °F 64.0 °F 97% 30.18 in 10.0 mi NNE 4.6 mph - N/A   Overcast
10:56 PM 64.0 °F 63.0 °F 96% 30.18 in 9.0 mi Calm Calm - N/A   Overcast
11:03 PM 64.0 °F 64.0 °F 100% 30.17 in 9.0 mi Calm Calm - N/A   Mostly Cloudy
11:56 PM 63.0 °F 63.0 °F 100% 30.17 in 8.0 mi Calm Calm - N/A   Scattered Clouds